User: anonymous
Location: Caltech
(34.1382°N, 118.1253°W)
Time: 03:21:01
(UTC-07:00)
Language:

CZ-2C R/B - Orbit

View from above orbital plane
View from above orbital plane
View from above satellite
View from above satellite

Ground track
Ground track

The orbit data is extracted from the following two-line orbital elements,

1 36089U 09061B   14292.65922627  .00000447  00000-0  12342-3 0  4624
2 36089 098.0946 320.6920 0083454 155.7211 315.4819 14.49241756260969
Epoch (UTC): 19 October 2014 15:49:17
Eccentricity: 0.0083454
inclination: 98.0946°
perigee height: 669 km
apogee height: 787 km
right ascension of ascending node: 320.6920°
argument of perigee: 155.7211°
revolutions per day: 14.49241756
mean anomaly at epoch: 315.4819°
orbit number at epoch: 26096

The dashed part of the orbit path shows where the satellite is in the earth's shadow,  

DLR